| time (UTC) | temp C | wind direction | speed KPH | gust KPH | rain 1hr cm | rain 24hr cm | rain mn cm | humidity % | barometer mb |
| 20260504040020 | 10 | 321 | 6.4 | 14.5 | 0.00 | 0.00 | 0.00 | 42 | 1014.9 |
| 20260504035507 | 10 | 333 | 8.0 | 17.7 | 0.00 | 0.00 | 0.00 | 42 | 1014.9 |
| 20260504035007 | 11 | 14 | 4.8 | 17.7 | 0.00 | 0.00 | 0.00 | 42 | 1014.7 |
| 20260504034504 | 11 | 322 | 6.4 | 16.1 | 0.00 | 0.00 | 0.00 | 41 | 1014.6 |
| 20260504034002 | 11 | 29 | 4.8 | 14.5 | 0.00 | 0.00 | 0.00 | 41 | 1014.6 |
| 20260504033506 | 11 | 313 | 6.4 | 12.9 | 0.00 | 0.00 | 0.00 | 41 | 1014.5 |
| 20260504033006 | 11 | 315 | 6.4 | 16.1 | 0.00 | 0.00 | 0.00 | 41 | 1014.3 |
| 20260504032504 | 11 | 351 | 9.7 | 19.3 | 0.00 | 0.00 | 0.00 | 41 | 1014.3 |
| 20260504032004 | 11 | 345 | 4.8 | 19.3 | 0.00 | 0.00 | 0.00 | 41 | 1014.1 |
| 20260504031510 | 11 | 335 | 6.4 | 22.5 | 0.00 | 0.00 | 0.00 | 41 | 1013.9 |
| 20260504031005 | 11 | 311 | 8.0 | 22.5 | 0.00 | 0.00 | 0.00 | 41 | 1013.9 |
| 20260504030503 | 11 | 6 | 6.4 | 12.9 | 0.00 | 0.00 | 0.00 | 41 | 1013.8 |
| 20260504030013 | 11 | 327 | 6.4 | 16.1 | 0.00 | 0.00 | 0.00 | 41 | 1013.7 |
| 20260504025507 | 12 | 349 | 6.4 | 16.1 | 0.00 | 0.00 | 0.00 | 40 | 1013.6 |
| 20260504025004 | 12 | 14 | 6.4 | 17.7 | 0.00 | 0.00 | 0.00 | 39 | 1013.6 |
| 20260504024519 | 12 | 339 | 6.4 | 17.7 | 0.00 | 0.00 | 0.00 | 39 | 1013.4 |
| 20260504024008 | 12 | 350 | 6.4 | 17.7 | 0.00 | 0.00 | 0.00 | 39 | 1013.3 |
| 20260504023507 | 12 | 319 | 9.7 | 25.7 | 0.00 | 0.00 | 0.00 | 38 | 1013.3 |
| 20260504023022 | 12 | 307 | 6.4 | 25.7 | 0.00 | 0.00 | 0.00 | 38 | 1013.2 |
| 20260504022503 | 12 | 312 | 8.0 | 22.5 | 0.00 | 0.00 | 0.00 | 37 | 1013.1 |
| 20260504022004 | 13 | 335 | 6.4 | 22.5 | 0.00 | 0.00 | 0.00 | 37 | 1013.2 |
| 20260504021506 | 13 | 26 | 8.0 | 22.5 | 0.00 | 0.00 | 0.00 | 36 | 1013.1 |
| 20260504021003 | 13 | 57 | 12.9 | 25.7 | 0.00 | 0.00 | 0.00 | 34 | 1012.9 |
| 20260504020503 | 13 | 346 | 9.7 | 25.7 | 0.00 | 0.00 | 0.00 | 35 | 1012.8 |
| 20260504020010 | 13 | 327 | 11.3 | 25.7 | 0.00 | 0.00 | 0.00 | 34 | 1012.8 |
| 20260504015502 | 13 | 324 | 11.3 | 25.7 | 0.00 | 0.00 | 0.00 | 35 | 1012.8 |
| 20260504015002 | 13 | 316 | 14.5 | 25.7 | 0.00 | 0.00 | 0.00 | 34 | 1012.6 |
| 20260504014513 | 13 | 304 | 12.9 | 27.4 | 0.00 | 0.00 | 0.00 | 34 | 1012.6 |
| 20260504014005 | 13 | 345 | 14.5 | 29.0 | 0.00 | 0.00 | 0.00 | 34 | 1012.5 |
| 20260504013506 | 13 | 316 | 9.7 | 29.0 | 0.00 | 0.00 | 0.00 | 34 | 1012.5 |
| 20260504013021 | 14 | 330 | 14.5 | 27.4 | 0.00 | 0.00 | 0.00 | 34 | 1012.5 |
| 20260504012505 | 14 | 354 | 11.3 | 30.6 | 0.00 | 0.00 | 0.00 | 34 | 1012.4 |
| 20260504012007 | 14 | 333 | 16.1 | 30.6 | 0.00 | 0.00 | 0.00 | 34 | 1012.5 |
| 20260504011522 | 14 | 333 | 11.3 | 33.8 | 0.00 | 0.00 | 0.00 | 34 | 1012.4 |
| 20260504011010 | 14 | 10 | 14.5 | 41.8 | 0.00 | 0.00 | 0.00 | 34 | 1012.1 |
| 20260504010502 | 14 | 325 | 16.1 | 41.8 | 0.00 | 0.00 | 0.00 | 34 | 1012.2 |
| 20260504010009 | 14 | 310 | 14.5 | 33.8 | 0.00 | 0.00 | 0.00 | 33 | 1012.2 |
| 20260504005504 | 15 | 311 | 14.5 | 33.8 | 0.00 | 0.00 | 0.00 | 34 | 1012.1 |
| 20260504005004 | 15 | 20 | 14.5 | 38.6 | 0.00 | 0.00 | 0.00 | 34 | 1012.2 |
| 20260504004516 | 15 | 302 | 17.7 | 38.6 | 0.00 | 0.00 | 0.00 | 33 | 1012.1 |
| 20260504004007 | 15 | 337 | 19.3 | 38.6 | 0.00 | 0.00 | 0.00 | 33 | 1012.4 |
| 20260504003506 | 15 | 311 | 12.9 | 32.2 | 0.00 | 0.00 | 0.00 | 32 | 1012.0 |
| 20260504003015 | 15 | 327 | 12.9 | 32.2 | 0.00 | 0.00 | 0.00 | 32 | 1012.0 |
| 20260504002506 | 16 | 349 | 12.9 | 33.8 | 0.00 | 0.00 | 0.00 | 32 | 1011.8 |
| 20260504002008 | 16 | 326 | 12.9 | 43.5 | 0.00 | 0.00 | 0.00 | 32 | 1012.0 |
| 20260504001523 | 16 | 193 | 17.7 | 43.5 | 0.00 | 0.00 | 0.00 | 31 | 1011.9 |
| 20260504001007 | 16 | 297 | 16.1 | 35.4 | 0.00 | 0.00 | 0.00 | 31 | 1011.8 |
| 20260504000506 | 16 | 27 | 14.5 | 35.4 | 0.00 | 0.00 | 0.00 | 31 | 1011.8 |
| 20260504000025 | 16 | 332 | 14.5 | 37.0 | 0.00 | 0.00 | 0.00 | 31 | 1011.5 |
| 20260503235508 | 16 | 32 | 12.9 | 37.0 | 0.00 | 0.00 | 0.00 | 31 | 1011.5 |
| 20260503235011 | 17 | 22 | 12.9 | 30.6 | 0.00 | 0.00 | 0.00 | 31 | 1011.4 |
| 20260503234516 | 17 | 32 | 8.0 | 30.6 | 0.00 | 0.00 | 0.00 | 31 | 1011.4 |
| 20260503234004 | 17 | 316 | 11.3 | 29.0 | 0.00 | 0.00 | 0.00 | 31 | 1011.4 |
| 20260503233503 | 17 | 50 | 12.9 | 29.0 | 0.00 | 0.00 | 0.00 | 30 | 1011.3 |
| 20260503233012 | 17 | 351 | 16.1 | 29.0 | 0.00 | 0.00 | 0.00 | 30 | 1011.4 |
| 20260503232505 | 17 | 323 | 14.5 | 29.0 | 0.00 | 0.00 | 0.00 | 30 | 1011.3 |
| 20260503232004 | 17 | 304 | 14.5 | 27.4 | 0.00 | 0.00 | 0.00 | 30 | 1011.3 |
| 20260503231522 | 17 | 15 | 12.9 | 27.4 | 0.00 | 0.00 | 0.00 | 31 | 1011.2 |
| 20260503231009 | 17 | 37 | 8.0 | 32.2 | 0.00 | 0.00 | 0.00 | 31 | 1011.2 |
| 20260503230508 | 17 | 312 | 16.1 | 33.8 | 0.00 | 0.00 | 0.00 | 30 | 1011.3 |
| 20260503230024 | 18 | 356 | 14.5 | 33.8 | 0.00 | 0.00 | 0.00 | 29 | 1011.0 |
| 20260503225506 | 18 | 342 | 17.7 | 32.2 | 0.00 | 0.00 | 0.00 | 29 | 1010.8 |
| 20260503225007 | 18 | 299 | 12.9 | 30.6 | 0.00 | 0.00 | 0.00 | 29 | 1010.9 |
| 20260503224526 | 19 | 356 | 12.9 | 30.6 | 0.00 | 0.00 | 0.00 | 28 | 1011.1 |
| 20260503224010 | 19 | 312 | 11.3 | 24.1 | 0.00 | 0.00 | 0.00 | 28 | 1010.7 |
| 20260503223508 | 20 | 311 | 8.0 | 24.1 | 0.00 | 0.00 | 0.00 | 28 | 1010.8 |
| 20260503223029 | 19 | 252 | 8.0 | 29.0 | 0.00 | 0.00 | 0.00 | 28 | 1010.6 |
| 20260503222504 | 19 | 301 | 9.7 | 29.0 | 0.00 | 0.00 | 0.00 | 29 | 1010.6 |
| 20260503222003 | 19 | 334 | 12.9 | 25.7 | 0.00 | 0.00 | 0.00 | 28 | 1010.6 |
| 20260503221516 | 20 | 270 | 11.3 | 27.4 | 0.00 | 0.00 | 0.00 | 28 | 1010.7 |
| 20260503221008 | 19 | 297 | 11.3 | 33.8 | 0.00 | 0.00 | 0.00 | 28 | 1010.6 |
| 20260503220511 | 20 | 326 | 11.3 | 33.8 | 0.00 | 0.00 | 0.00 | 28 | 1010.7 |
| 20260503220018 | 20 | 23 | 9.7 | 25.7 | 0.00 | 0.00 | 0.00 | 28 | 1010.7 |
| 20260503215508 | 20 | 342 | 8.0 | 25.7 | 0.00 | 0.00 | 0.00 | 29 | 1010.7 |
| 20260503215008 | 19 | 38 | 8.0 | 22.5 | 0.00 | 0.00 | 0.00 | 29 | 1010.7 |
| 20260503214537 | 19 | 349 | 9.7 | 27.4 | 0.00 | 0.00 | 0.00 | 29 | 1010.8 |
| 20260503214009 | 19 | 316 | 11.3 | 27.4 | 0.00 | 0.00 | 0.00 | 29 | 1010.8 |
| 20260503213504 | 19 | 267 | 11.3 | 27.4 | 0.00 | 0.00 | 0.00 | 28 | 1010.7 |
| 20260503213008 | 19 | 225 | 9.7 | 20.9 | 0.00 | 0.00 | 0.00 | 28 | 1011.1 |
| 20260503212508 | 19 | 314 | 6.4 | 20.9 | 0.00 | 0.00 | 0.00 | 29 | 1011.0 |
| 20260503212004 | 19 | 309 | 9.7 | 27.4 | 0.00 | 0.00 | 0.00 | 29 | 1010.9 |
| 20260503211514 | 19 | 1 | 12.9 | 27.4 | 0.00 | 0.00 | 0.00 | 28 | 1011.0 |
| 20260503211004 | 19 | 320 | 12.9 | 27.4 | 0.00 | 0.00 | 0.00 | 29 | 1010.8 |
| 20260503210506 | 19 | 345 | 9.7 | 27.4 | 0.00 | 0.00 | 0.00 | 28 | 1010.8 |
| 20260503210016 | 19 | 255 | 8.0 | 30.6 | 0.00 | 0.00 | 0.00 | 28 | 1010.9 |
| 20260503205505 | 19 | 310 | 6.4 | 30.6 | 0.00 | 0.00 | 0.00 | 29 | 1011.0 |
| 20260503205005 | 19 | 322 | 8.0 | 22.5 | 0.00 | 0.00 | 0.00 | 29 | 1011.0 |
| 20260503204519 | 19 | 278 | 8.0 | 27.4 | 0.00 | 0.00 | 0.00 | 28 | 1010.9 |
| 20260503204007 | 19 | 295 | 8.0 | 27.4 | 0.00 | 0.00 | 0.00 | 28 | 1011.0 |
| 20260503203507 | 19 | 263 | 8.0 | 24.1 | 0.00 | 0.00 | 0.00 | 29 | 1010.9 |
| 20260503203024 | 19 | 308 | 8.0 | 20.9 | 0.00 | 0.00 | 0.00 | 29 | 1011.0 |
| 20260503202509 | 19 | 248 | 8.0 | 27.4 | 0.00 | 0.00 | 0.00 | 29 | 1011.0 |
| 20260503202010 | 19 | 11 | 11.3 | 27.4 | 0.00 | 0.00 | 0.00 | 29 | 1011.0 |
| 20260503201508 | 19 | 294 | 12.9 | 22.5 | 0.00 | 0.00 | 0.00 | 28 | 1010.9 |
| 20260503201007 | 19 | 323 | 9.7 | 22.5 | 0.00 | 0.00 | 0.00 | 29 | 1011.0 |
| 20260503200504 | 18 | 217 | 11.3 | 25.7 | 0.00 | 0.00 | 0.00 | 28 | 1011.0 |
| 20260503200016 | 19 | 284 | 11.3 | 25.7 | 0.00 | 0.00 | 0.00 | 29 | 1011.1 |
| 20260503195504 | 19 | 298 | 9.7 | 27.4 | 0.00 | 0.00 | 0.00 | 29 | 1011.1 |
| 20260503195005 | 18 | 301 | 11.3 | 27.4 | 0.00 | 0.00 | 0.00 | 29 | 1011.1 |
| 20260503194518 | 18 | 312 | 8.0 | 22.5 | 0.00 | 0.00 | 0.00 | 29 | 1011.1 |
| 20260503194009 | 18 | 292 | 11.3 | 27.4 | 0.00 | 0.00 | 0.00 | 29 | 1011.2 |
| 20260503193507 | 19 | 320 | 6.4 | 27.4 | 0.00 | 0.00 | 0.00 | 30 | 1011.2 |
| 20260503193029 | 18 | 308 | 11.3 | 29.0 | 0.00 | 0.00 | 0.00 | 28 | 1011.3 |
| 20260503192507 | 19 | 289 | 9.7 | 29.0 | 0.00 | 0.00 | 0.00 | 30 | 1011.3 |
| 20260503192011 | 18 | 312 | 6.4 | 29.0 | 0.00 | 0.00 | 0.00 | 30 | 1011.4 |
| 20260503191526 | 18 | 304 | 11.3 | 29.0 | 0.00 | 0.00 | 0.00 | 30 | 1011.5 |
| 20260503191008 | 18 | 1 | 12.9 | 29.0 | 0.00 | 0.00 | 0.00 | 30 | 1011.4 |
| 20260503190507 | 18 | 304 | 11.3 | 25.7 | 0.00 | 0.00 | 0.00 | 30 | 1011.4 |
| 20260503190028 | 18 | 277 | 12.9 | 24.1 | 0.00 | 0.00 | 0.00 | 29 | 1011.5 |
| 20260503185502 | 18 | 281 | 9.7 | 24.1 | 0.00 | 0.00 | 0.00 | 31 | 1011.6 |
| 20260503185006 | 18 | 276 | 8.0 | 24.1 | 0.00 | 0.00 | 0.00 | 31 | 1011.5 |
| 20260503184518 | 18 | 257 | 9.7 | 24.1 | 0.00 | 0.00 | 0.00 | 31 | 1011.5 |
| 20260503184007 | 18 | 257 | 11.3 | 29.0 | 0.00 | 0.00 | 0.00 | 31 | 1011.5 |
| 20260503183508 | 18 | 309 | 9.7 | 35.4 | 0.00 | 0.00 | 0.00 | 31 | 1011.6 |
| 20260503183020 | 18 | 260 | 11.3 | 35.4 | 0.00 | 0.00 | 0.00 | 31 | 1011.6 |
| 20260503182505 | 18 | 342 | 11.3 | 33.8 | 0.00 | 0.00 | 0.00 | 31 | 1011.6 |
| 20260503182012 | 18 | 311 | 11.3 | 33.8 | 0.00 | 0.00 | 0.00 | 32 | 1011.6 |
| 20260503181523 | 18 | 212 | 11.3 | 25.7 | 0.00 | 0.00 | 0.00 | 32 | 1011.6 |
| 20260503181010 | 18 | 296 | 11.3 | 29.0 | 0.00 | 0.00 | 0.00 | 32 | 1011.5 |
| 20260503180510 | 18 | 319 | 9.7 | 29.0 | 0.00 | 0.00 | 0.00 | 32 | 1011.5 |
| 20260503180042 | 18 | 297 | 8.0 | 25.7 | 0.00 | 0.00 | 0.00 | 33 | 1011.5 |
| 20260503175509 | 18 | 289 | 9.7 | 22.5 | 0.00 | 0.00 | 0.00 | 33 | 1011.6 |
| 20260503175009 | 18 | 302 | 9.7 | 20.9 | 0.00 | 0.00 | 0.00 | 33 | 1011.6 |
| 20260503174541 | 17 | 313 | 9.7 | 20.9 | 0.00 | 0.00 | 0.00 | 34 | 1011.5 |
| 20260503174004 | 17 | 297 | 11.3 | 30.6 | 0.00 | 0.00 | 0.00 | 34 | 1011.6 |
| 20260503173504 | 17 | 238 | 11.3 | 30.6 | 0.00 | 0.00 | 0.00 | 35 | 1011.5 |
| 20260503173025 | 17 | 262 | 9.7 | 25.7 | 0.00 | 0.00 | 0.00 | 34 | 1011.6 |
| 20260503172506 | 17 | 293 | 11.3 | 25.7 | 0.00 | 0.00 | 0.00 | 34 | 1011.6 |
| 20260503172009 | 17 | 291 | 9.7 | 22.5 | 0.00 | 0.00 | 0.00 | 35 | 1011.6 |
| 20260503171521 | 17 | 304 | 6.4 | 25.7 | 0.00 | 0.00 | 0.00 | 35 | 1011.6 |
| 20260503171008 | 17 | 302 | 11.3 | 25.7 | 0.00 | 0.00 | 0.00 | 35 | 1011.7 |
| 20260503170509 | 17 | 1 | 9.7 | 20.9 | 0.00 | 0.00 | 0.00 | 35 | 1011.6 |
| 20260503151002 | 14 | 285 | 11.3 | 24.1 | 0.00 | 0.00 | 0.00 | 37 | 1012.2 |
| 20260503150505 | 14 | 264 | 6.4 | 22.5 | 0.00 | 0.00 | 0.00 | 37 | 1012.4 |
| 20260503131003 | 9 | 222 | 1.6 | 6.4 | 0.00 | 0.00 | 0.00 | 44 | 1012.2 |
| 20260503130506 | 9 | 214 | 1.6 | 6.4 | 0.00 | 0.00 | 0.00 | 44 | 1012.1 |
| 20260503110503 | 10 | 257 | 3.2 | 8.0 | 0.00 | 0.00 | 0.00 | 39 | 1012.5 |
| 20260503090507 | 9 | 231 | 0.0 | 1.6 | 0.00 | 0.00 | 0.00 | 41 | 1012.8 |
| 20260503081534 | 11 | 255 | 3.2 | 9.7 | 0.00 | 0.00 | 0.00 | 36 | 1012.7 |
| 20260503081004 | 11 | 278 | 3.2 | 6.4 | 0.00 | 0.00 | 0.00 | 36 | 1012.6 |
| 20260503080507 | 11 | 271 | 3.2 | 8.0 | 0.00 | 0.00 | 0.00 | 36 | 1012.6 |
| 20260503072512 | 12 | 256 | 3.2 | 6.4 | 0.00 | 0.00 | 0.00 | 35 | 1012.7 |
| 20260503072011 | 12 | 237 | 1.6 | 4.8 | 0.00 | 0.00 | 0.00 | 34 | 1012.6 |
| 20260503071528 | 12 | 273 | 3.2 | 6.4 | 0.00 | 0.00 | 0.00 | 34 | 1012.6 |
| 20260503071004 | 12 | 267 | 3.2 | 9.7 | 0.00 | 0.00 | 0.00 | 34 | 1012.6 |
| 20260503070506 | 13 | 272 | 4.8 | 11.3 | 0.00 | 0.00 | 0.00 | 34 | 1012.5 |
| 20260503055007 | 14 | 263 | 12.9 | 25.7 | 0.00 | 0.00 | 0.00 | 33 | 1012.3 |
| 20260503054522 | 13 | 290 | 9.7 | 16.1 | 0.00 | 0.00 | 0.00 | 37 | 1012.2 |
| 20260503054007 | 12 | 270 | 4.8 | 9.7 | 0.00 | 0.00 | 0.00 | 41 | 1012.1 |
| 20260503053507 | 12 | 224 | 1.6 | 3.2 | 0.00 | 0.00 | 0.00 | 43 | 1012.2 |
| 20260503053003 | 12 | 256 | 0.0 | 3.2 | 0.00 | 0.00 | 0.00 | 42 | 1012.2 |
| 20260503052502 | 12 | 217 | 1.6 | 3.2 | 0.00 | 0.00 | 0.00 | 42 | 1012.2 |
| 20260503052004 | 12 | 231 | 0.0 | 3.2 | 0.00 | 0.00 | 0.00 | 43 | 1012.3 |
| 20260503051512 | 12 | 207 | 0.0 | 6.4 | 0.00 | 0.00 | 0.00 | 43 | 1012.4 |
| 20260503051003 | 12 | 131 | 0.0 | 6.4 | 0.00 | 0.00 | 0.00 | 43 | 1012.4 |
| 20260503050503 | 12 | 130 | 1.6 | 4.8 | 0.00 | 0.00 | 0.00 | 42 | 1012.4 |
| 20260503050017 | 12 | 191 | 0.0 | 3.2 | 0.00 | 0.00 | 0.00 | 41 | 1012.4 |
| 20260503045506 | 12 | 193 | 0.0 | 3.2 | 0.00 | 0.00 | 0.00 | 41 | 1012.3 |
| 20260503045005 | 12 | 230 | 0.0 | 3.2 | 0.00 | 0.00 | 0.00 | 40 | 1012.3 |
| 20260503044516 | 12 | 131 | 0.0 | 1.6 | 0.00 | 0.00 | 0.00 | 40 | 1012.5 |
| 20260503044006 | 13 | 224 | 0.0 | 3.2 | 0.00 | 0.00 | 0.00 | 39 | 1012.4 |
| 20260503043507 | 13 | 223 | 0.0 | 3.2 | 0.00 | 0.00 | 0.00 | 39 | 1012.4 |
| 20260503043022 | 13 | 240 | 0.0 | 1.6 | 0.00 | 0.00 | 0.00 | 39 | 1012.4 |
| 20260503042508 | 13 | 217 | 0.0 | 0.0 | 0.00 | 0.00 | 0.00 | 38 | 1012.4 |
| 20260503042012 | 13 | 209 | 0.0 | 0.0 | 0.00 | 0.00 | 0.00 | 37 | 1012.5 |
| 20260503041524 | 13 | 205 | 0.0 | 3.2 | 0.00 | 0.00 | 0.00 | 37 | 1012.6 |
| 20260503041002 | 14 | 205 | 0.0 | 3.2 | 0.00 | 0.00 | 0.00 | 36 | 1012.7 |
| 20260503040503 | 14 | 213 | 1.6 | 1.6 | 0.00 | 0.00 | 0.00 | 36 | 1012.7 |